Location: Gravenhurst
(44.9196°N, 79.3742°W)
Time: 05:49:14
(UTC-04:00)

ISS - Visible Passes

Search period start: 23 October 2019 00:00
Search period end: 02 November 2019 00:00
Orbit: 411 x 421 km, 51.6° (Epoch: 23 October)

Date Brightness Start Highest point End Pass type
(mag) Time Alt. Az. Time Alt. Az. Time Alt. Az.
24 Oct -2.0 07:00:06 10° SSW 07:03:10 33° SE 07:06:14 10° ENE visible
25 Oct -1.3 06:12:09 10° S 06:14:44 21° SE 06:17:20 10° E visible
26 Oct -0.9 05:25:40 12° SE 05:26:22 13° SE 05:27:55 10° ESE visible
26 Oct -3.7 06:59:15 10° SW 07:02:38 83° SSE 07:06:00 10° ENE visible
27 Oct -3.1 06:12:37 28° SSW 06:14:04 51° SE 06:17:22 10° ENE visible
28 Oct -1.7 05:26:28 26° ESE 05:26:28 26° ESE 05:28:36 10° ENE visible
28 Oct -3.4 06:59:23 13° W 07:02:13 47° NNW 07:05:30 10° NE visible
29 Oct -3.8 06:13:05 58° W 06:13:33 69° NNW 06:16:55 10° ENE visible
30 Oct -1.6 05:26:41 26° ENE 05:26:41 26° ENE 05:28:18 10° ENE visible
30 Oct -2.6 06:59:35 15° WNW 07:01:55 30° NNW 07:04:57 10° NE visible
31 Oct -3.0 06:13:05 37° NNW 06:13:09 37° NNW 06:16:20 10° NE visible
01 Nov -1.2 05:26:31 20° NE 05:26:31 20° NE 05:27:43 10° NE visible
01 Nov -2.2 06:59:25 14° NW 07:01:40 25° N 07:04:31 10° NE visible
